Regional Weather Roundup
Issued by NWS

Home | Current Version | Previous Version | Graphics & Text | Print | Product List | Glossary On
Versions: 1 2 3 4 5 6 7 8 9 10 11 12 13 14 15 16 17 18 19 20 21 22 23 24 25 26 27 28 29 30 31 32 33 34 35 36 37 38 39 40 41 42 43 44 45 46 47 48 49 50
000
ASUS43 KDTX 272210
RWRMI
MICHIGAN HOURLY REGIONAL WEATHER ROUNDUP
NATIONAL WEATHER SERVICE DETROIT/PONTIAC MI
600 PM EDT WED MAY 27 2015

NOTE: "FAIR" INDICATES FEW OR NO CLOUDS BELOW 12,000 FEET WITH NO
SIGNIFICANT WEATHER AND/OR OBSTRUCTION TO VISIBILITY.

MIZ047>049-052>055-059>063-066>070-074>076-081>083-272300-
SOUTHEAST LOWER MICHIGAN

CITY           SKY/WX    TMP DP  RH WIND       PRES   REMARKS
ADRIAN         CLOUDY    75  61  61 W13G20    30.00S
ALMA           CLOUDY    70  59  69 W13G20    29.96R
ANN ARBOR      CLOUDY    74  59  59 W14G22    29.98F
BAD AXE        CLOUDY    72  55  55 W16G29    29.93R
CARO           PTSUNNY   74  60  60 W14G21    29.93R
DETROIT CITY   CLOUDY    73  59  61 W8        29.97S
DETROIT        CLOUDY    73  63  70 S10       29.99S
FLINT          CLOUDY    76  58  53 W16       29.95S
GROSSE ILE     CLOUDY    68  63  83 SW6       29.97F
HILLSDALE      CLOUDY    71  64  78 W9        30.01S
HOWELL         PTSUNNY   72  61  68 W10G20    29.97S

CITY           SKY/WX    TMP DP  RH WIND       PRES   REMARKS
JACKSON        CLOUDY    71  63  75 SW10      29.99R
LAMBERTVILLE   CLOUDY    68  63  83 SW3       30.00S
LANSING        CLOUDY    72  56  57 W18G26    29.98R
LAPEER         PTSUNNY   76  56  49 W14G22    29.94F
MASON          CLOUDY    70  57  62 W10G16    29.98S
MONROE         CLOUDY    70  64  83 SW10      29.97F
MT. CLEMENS    PTSUNNY   70  62  75 W8        29.95S
PONTIAC        CLOUDY    70  62  76 SW9       29.96F
PORT HOPE        N/A     74  58  57 W10G20    29.90R
PORT HURON     CLOUDY    66  63  88 SW5       29.97S
TRI CITIES     PTSUNNY   74  58  57 W17G26    29.94R
MIDLAND        FAIR      73  57  57 W15G23    29.92R
TROY           CLOUDY    74  61  63 SW10G22   29.99F
SAGINAW HB     PTSUNNY   72  57  60 W18G25    29.94R
$$
MIZ043>046-050>051-056>058-064>065-071>073-077>080-272300-
SOUTHWEST LOWER MICHIGAN

CITY           SKY/WX    TMP DP  RH WIND       PRES   REMARKS
BATTLE CREEK   PTSUNNY   71  56  58 W14       30.00R
BENTON HARBOR  CLOUDY    64  57  78 NW6       30.02S
BIG RAPIDS     CLOUDY    68  55  62 NW10G18   29.97R
COLDWATER      CLOUDY    71  63  77 W6        30.00S
FREMONT        PTSUNNY   70  57  63 W10G16    29.98R
HOLLAND        MOSUNNY   66  58  75 NW8       30.01S
GRAND RAPIDS   PTSUNNY   69  58  67 W13       29.99R
IONIA          PTSUNNY   71  56  58 W13G18    29.97S
KALAMAZOO      PTSUNNY   71  57  61 W15       30.00S
LUDINGTON      MOSUNNY   64  55  72 SW6       29.99S
MARSHALL       CLOUDY    73  58  60 W16G22    29.99R
MOUNT PLEASANT MOSUNNY   72  56  58 SW17      29.94S
MUSKEGON       PTSUNNY   61  55  81 W5        30.01R
SOUTH HAVEN    SUNNY     67  56  69 NW7       30.02R
$$
MIZ016>042-272300-
NORTHERN LOWER MICHIGAN

CITY           SKY/WX    TMP DP  RH WIND       PRES   REMARKS
ALPENA         CLOUDY    67  55  65 W12G20    29.90R
BEAVER ISLAND  PTSUNNY   58  52  81 SW8       29.94R
BELLAIRE       MOSUNNY   65  55  71 W5        29.95R
CADILLAC       MOSUNNY   68  55  61 W7        29.96S
CHARLEVOIX     PTSUNNY   62  56  80 W10       29.97R
FRANKFORT      SUNNY     64  52  65 W6        29.97R
GAYLORD        CLOUDY    61  56  83 W9G17     29.95R
GRAYLING       CLOUDY    64  55  72 NW13G21   29.97R
HARBOR SPRINGS MOSUNNY   53  51  94 SW5       29.94S
HOUGHTON LAKE  MOSUNNY   67  54  63 W9        29.94R
MANISTEE       MOSUNNY   64  52  63 W9        29.99R
OSCODA         MOSUNNY   76  55  48 W21G32    29.88R
PELLSTON       PTSUNNY   65  55  70 W10G17    29.93R
ROGERS CITY    PTSUNNY   65  57  74 W13G20    29.91R
TRAVERSE CITY  MOSUNNY   69  57  65 VRB7      29.94R
$$
MIZ007>008-015-272300-
EASTERN UPPER MICHIGAN

CITY           SKY/WX    TMP DP  RH WIND       PRES   REMARKS
KINROSS        CLOUDY    54  54 100 NW10      29.91R
MACKINAC ISLAN CLOUDY    53  53 100 W9        29.93R
NEWBERRY       CLOUDY    65  58  77 W3        29.91R
S. S. MARIE    LGT RAIN  49  47  93 W8        29.91R
MUNISING         N/A     64  55  72 CALM      29.88R
$$
MIZ004>006-011>014-085-272300-
CENTRAL UPPER MICHIGAN

CITY           SKY/WX    TMP DP  RH WIND       PRES   REMARKS
MANISTIQUE     MOSUNNY   64  56  75 S7        29.91R
ESCANABA       MOSUNNY   61  54  77 S12       29.89R
MENOMINEE      MOSUNNY   75  61  60 W9G16     29.90S
SAWYER-GWINN   MOSUNNY   75  52  43 N5        29.88R
$$
MIZ001>003-009>011-084-272300-
WESTERN UPPER MICHIGAN

CITY           SKY/WX    TMP DP  RH WIND       PRES   REMARKS
IRON MOUNTAIN  PTSUNNY   74  55  51 W8G17     29.89R
HOUGHTON       SUNNY     75  52  44 W13       29.88R
COPPER HARBOR    N/A     52  46  80 N15       29.91R
IRONWOOD       SUNNY     77  52  41 W9        29.87S
$$

ABBREVIATIONS USED IN REMARKS
   TC - TEMPERATURE IN CELSIUS
  WCI - WIND CHILL INDEX
   HX - HEAT INDEX
  VSB - VISIBILITY




USA.gov is the U.S. government's official web portal to all federal, state and local government web resources and services.